Weather History for Lancaster, CA

Change the Weather History Date:

Monday, March 18, 2013

  Actual Average Record
Temperature  
Mean Temperature 63 °F 54 °F  
Max Temperature 78 °F 68 °F 85 °F (2004)
Min Temperature 47 °F 40 °F 22 °F (1951)
Degree Days  
Heating Degree Days 2    
Month to date heating degree days 159  
Since 1 July heating degree days 2531  
Cooling Degree Days 0    
Month to date cooling degree days 10  
Year to date cooling degree days 10  
Growing Degree Days 12 (Base 50)    
Moisture  
Dew Point 23 °F    
Average Humidity 31    
Maximum Humidity 53    
Minimum Humidity 8    
Precipitation  
Precipitation 0.00 in 0.03 in 0.27 in (1983)
Month to date precipitation 0.35 0.78  
Year to date precipitation 0.95 4.06  
Since 1 July precipitation 1.11 6.53  
Snow  
Snow 0.00 in - 0.00 in ()
Month to date snowfall 0.0  
Since 1 July snowfall 0.0  
Snow Depth 0.00 in    
Sea Level Pressure  
Sea Level Pressure 29.99 in    
Wind  
Wind Speed 13 mph (West)    
Max Wind Speed 31 mph    
Max Gust Speed 38 mph    
Visibility 10 miles    
Events      
T = Trace of Precipitation, MM = Missing Value Source: NWS Daily Summary

Daily Weather History Graph

Daily Weather History Graph

Search for Another Location

Airport:

Trip Planner

Search our weather history database for the weather conditions in past years. The results will help you decide how hot, cold, wet, or windy it might be!

Date:

Astronomy

Mar. 18, 2013 Rise Set
Actual Time 6:58 AM PDT 7:03 PM PDT
Civil Twilight 6:33 AM PDT 7:28 PM PDT
Nautical Twilight 6:04 AM PDT 7:57 PM PDT
Astronomical Twilight 5:34 AM PDT 8:27 PM PDT
Moon 11:15 AM PDT (3/18) 12:53 AM PDT (3/18)
Length of Visible Light 12h 54m
Length of Day
12h 04m
Waxing Crescent, 41% of the Moon is Illuminated
Mar 18
Waxing Crescent
Mar 19
First Quarter
Mar 27
Full
Apr 2
Last Quarter
Apr 10
New

Hourly Weather History & Observations

Time (PDT) Temp. Dew Point Humidity Pressure Visibility Wind Dir Wind Speed Gust Speed Precip Events Conditions
12:56 AM 57.0 °F 28.0 °F 33% 29.94 in 10.0 mi West 23.0 mph 32.2 mph N/A   Clear
1:56 AM 57.0 °F 30.0 °F 36% 29.96 in 10.0 mi WSW 18.4 mph 26.5 mph N/A   Clear
2:56 AM 55.9 °F 34.0 °F 44% 29.95 in 10.0 mi West 19.6 mph - N/A   Clear
3:56 AM 54.0 °F 35.1 °F 49% 29.94 in 10.0 mi West 16.1 mph - N/A   Clear
4:56 AM 53.1 °F 34.0 °F 48% 29.95 in 10.0 mi West 11.5 mph - N/A   Clear
5:56 AM 53.1 °F 32.0 °F 45% 29.97 in 10.0 mi West 9.2 mph - N/A   Clear
6:56 AM 46.9 °F 30.9 °F 54% 30.02 in 10.0 mi ESE 4.6 mph - N/A   Clear
7:56 AM 51.1 °F 30.9 °F 46% 30.02 in 10.0 mi WNW 6.9 mph - N/A   Clear
8:56 AM 60.1 °F 30.0 °F 32% 30.04 in 10.0 mi WNW 8.1 mph - N/A   Clear
9:56 AM 64.9 °F 26.1 °F 23% 30.04 in 10.0 mi WNW 6.9 mph - N/A   Clear
10:56 AM 68.0 °F 21.0 °F 17% 30.04 in 10.0 mi Calm Calm - N/A   Clear
11:56 AM 71.1 °F 21.0 °F 15% 30.02 in 10.0 mi Calm Calm - N/A   Clear
12:56 PM 75.0 °F 18.0 °F 12% 30.00 in 10.0 mi Calm Calm - N/A   Clear
1:56 PM 75.9 °F 16.0 °F 10% 29.97 in 10.0 mi NNE 5.8 mph - N/A   Clear
2:56 PM 77.0 °F 18.0 °F 11% 29.96 in 10.0 mi West 11.5 mph - N/A   Clear
3:56 PM 75.0 °F 16.0 °F 11% 29.95 in 10.0 mi West 24.2 mph - N/A   Clear
4:56 PM 72.0 °F 14.0 °F 11% 29.96 in 10.0 mi West 24.2 mph - N/A   Clear
5:56 PM 69.1 °F 5.0 °F 8% 29.96 in 10.0 mi West 24.2 mph 31.1 mph N/A   Clear
6:56 PM 66.0 °F 12.0 °F 12% 29.97 in 10.0 mi West 17.3 mph - N/A   Clear
7:56 PM 64.9 °F 12.0 °F 13% 29.99 in 10.0 mi WSW 18.4 mph - N/A   Clear
8:56 PM 64.9 °F 10.0 °F 12% 29.99 in 10.0 mi West 20.7 mph 26.5 mph N/A   Clear
9:56 PM 61.0 °F 28.0 °F 29% 30.02 in 10.0 mi West 21.9 mph 33.4 mph N/A   Clear
10:56 PM 60.1 °F 28.0 °F 30% 30.02 in 10.0 mi West 23.0 mph 28.8 mph N/A   Clear
11:56 PM 59.0 °F 27.0 °F 29% 30.01 in 10.0 mi West 17.3 mph - N/A   Clear